THORAD DELTA 1 DEB, 8592

Orbit data source: Space-Track

THORAD DELTA 1 DEB, 8592 is space debris in SSO originally from a launch on Fri, 15 Nov 1974 UTC launched from the Air Force Western Test Range (AFWTR). Debris objects in space refer to the collection of defunct objects orbiting the Earth. Examples of debris include non-operational satellites, rocket bodies, and fragments generated from explosions, collisions, or faulty payload assembly.

Loading next visibility...
Identifier
8592, 1974-089DF
Orbit
SSO
Country
Flag of USUS
Related business
Manufacturer
Unknown
Mission
Spacecraft
Bus & Motor
Unknown
Mass
Unknown
Launch date (UTC)
1974-11-15 (52 years ago)
Launch vehicle
Unknown
Launch site
Air Force Western Test Range (AFWTR)
Object type
Payload
Rocket body
Debris
Shape & HBR
Unknown shape, 0.1 m
Radar Cross Section
Medium (>0.1 m² and <1 m²)

Expand to show TLE details & history
Last TLE update: 3 days ago

TLE from 3 days ago
0 THORAD DELTA 1 DEB
1 08592U 74089DF  26205.69304799 -.00000059  00000-0 -13181-3 0  9997
2 08592 101.8263 284.1564 0122356   5.8572 148.4957 12.31899049322688
Epoch: 2026-07-24T16:37Z
TLE epoch observation values (Epoch: 2026-07-24T16:37:59.346Z)
Latitude
24.38503°
Longitude
-82.3366°
Altitude
1,626.704 km
Speed
7.023 km/s
True Right ascension
07h 18m 18s
True Declination
24° 16' 12"
Sunlit
Object was in daylight at epoch
Visualization orbit readout
Latitude
Unknown
Longitude
Unknown
Altitude
Unknown
Speed
Unknown
Apparent Right ascension
Unknown
Apparent Declination
Unknown
Sunlit
N/A
Visualization observer readout
Local Sidereal Time
20:02:57
Azimuth
Unknown
Elevation
Unknown
Doppler factor
Unknown
Orbital elements
Apogee altitude
1,635.574 km
Perigee altitude
1,441.839 km
Semi-major axis
7,916.844 km
Eccentricity
0.01224
Inclination
101.8263°
RAAN
284.1564°
Arg. of periapsis
5.8572°
True anomaly
149.21893°
Mean anomaly
148.4957°
Eccentric anomaly
148.85825°
Mean motion
3.08117 °/min
Orbital period
116.84 mins
BSTAR
-0.00013181
Loading maneuver chart data...
Computing Atmospheric mass density...
Loading historical data...
Loading historical data...
Loading historical data...
Loading historical data...
Loading historical data...
Loading historical data...
Loading historical data...

Documentation

Showing up to 5 results
|